Regional Weather Roundup
Issued by NWS Newport/Morehead, NC

Current Version | Previous Version | Graphics & Text | Print | Product List | Glossary Off
Versions: 1 2 3 4 5 6 7 8 9 10 11 12 13 14 15 16 17 18 19 20 21 22 23 24 25 26 27 28 29 30 31 32 33 34 35 36 37 38 39 40 41 42 43 44 45 46 47 48 49 50

000
ASUS42 KMHX 281525
RWRMHX
WEATHER ROUNDUP FOR EASTERN NORTH CAROLINA
NATIONAL WEATHER SERVICE NEWPORT/MOREHEAD CITY NC
1100 AM EDT SAT MAY 28 2016

NOTE: "FAIR" INDICATES FEW OR NO CLOUDS BELOW 12,000 FEET
WITH NO SIGNIFICANT WEATHER AND/OR OBSTRUCTIONS TO VISIBILITY

NCZ015>017-031-032-045>047-102-103-281600-
NORTH COAST

CITY           SKY/WX    TMP DP  RH WIND       PRES   REMARKS
EDENTON        PTSUNNY  N/A N/A N/A CALM      30.21R
ELIZABETH CITY SUNNY     79  66  64 E9        30.21S
KITTY HAWK     SUNNY     79  65  62 E6        30.21R
MANTEO         NOT AVBL

$$

NCZ045>047-081-094-103-104-281600-
CENTRAL COAST

CITY           SKY/WX    TMP DP  RH WIND       PRES   REMARKS
FRISCO         SUNNY     82  67  60 SE13      30.19S

$$

NCZ095-097-098-100-101-281600-
SOUTHERN COAST

CITY           SKY/WX    TMP DP  RH WIND       PRES   REMARKS
BEAUFORT       MOSUNNY   80  68  66 E13G20    30.18R
CEDAR ISLAND   NOT AVBL
JACKSONVILLE   MOSUNNY   82  67  60 SE12      30.17R
PINEY ISLAND   SUNNY    N/A N/A N/A E15       30.18R
WILMINGTON     PTSUNNY   81  67  62 E13       30.16S


$$

NCZ011>013-027>030-043-044-078>080-089-090>093-098-281600-
COASTAL PLAIN

CITY           SKY/WX    TMP DP  RH WIND       PRES   REMARKS
AHOSKIE        SUNNY     76  63  64 CALM      30.21S
CLINTON        MOSUNNY   80  68  67 CALM      30.18F
ELIZABETHTOWN  MOSUNNY   82  67  60 E3        30.17S
GOLDSBORO      MOSUNNY  N/A N/A N/A MISG        N/A
GREENVILLE     SUNNY     81  63  54 CALM      30.20S
HAVELOCK       PTSUNNY   82  68  62 NE12      30.19R
KENANSVILLE    PTSUNNY   79  63  57 CALM      30.19S
KINSTON        MOSUNNY   81  64  57 E6        30.20R
NEW BERN       PTSUNNY   80  67  64 E7        30.19R
RICHLANDS      PTSUNNY   80  66  62 NE8       30.18R
ROCKY MOUNT    CLOUDY    79  65  62 VRB5      30.20R
WASHINGTON     SUNNY     81  64  54 E5        30.19S
WHITEVILLE     MOSUNNY   80  67  65 NE8       30.16R

$$

AMZ130-135-150-152-154-156-158-170-250-252-270-ANZ085-086-088-633-658-670-281600-
MARINE OBSERVATIONS

STATION/POSITION TIME  TEMP    WIND        PRES    WAVE   SWELL
                       AIR SEA DIR/SP/G            HT/PER HT/PER
                 (UTC) (F)     (DEG/KT/KT) (MB)    (FT/S) (FT/S)
CHESAPEAKE LIGHT 1500   69     130/  6/  6 1023.9
64 E VA BEACH    1450   67 62   60/  4/  6 1023.2    3/ 8   3/ 8
DUCK             1500   71 60   80/  9/ 10 1022.4
2 E DUCK         1411      65                N/A     2/ 8
OREGON INLET     1500   74 72   50/  8/ 10 1022.6
13E OREGON INLT  1500      72                N/A     3/ 8   3/ 8
HATTERAS CG      1500   77 74  120/  9/ 12 1022.1
DIAMOND BUOY     1450   77 78  100/ 12/ 16 1021.9    4/ 8   3/ 8
CAPE LOOKOUT     1500   76      80/  8/ 10 1021.5
BEAUFORT LAB     1500   77 73  120/ 13/ 16 1021.2
30 SE NEW RVR IN 1425      75                N/A     6/ 9   2/11
27 SE WRIGHTSVLE 1508   77 74   90/ 12/ 16 1021.2
5 SE WRIGHTSVLE  1508   75 75   60/ 12/ 16 1021.8
225 S CAPE HAT   1450   76 77  100/ 16/ 19 1019.3    4/ 8   2/ 8
41 SE CHARLESTON 1450   74 76   40/ 16/ 17 1018.0    6/ 9   5/ 9

$$



USA.gov is the U.S. government's official web portal to all federal, state and local government web resources and services.